Content
SEND FEEDBACK

Daily
Averages
Monthly
Summary
Spain

A CORUŅA - DOWNTOWN, SPAIN


Home > Europe > Spain
Elevation: 220 feet     Latitude: 43 22N     Longitude: 008 25W

WEATHER
 
SELECT A DAY
Number of Records: 269,874;   Date Range: 7/1/96 - 7/20/14
 
SHARE

PRINT THIS DATA

[ ← Previous Day ]
WEATHER ALMANAC - JANUARY 3, 2013
[ Next Day → ]
[ °C ]   °F
Weather ElementAverageHighLow
Temperature49.4 °F66.2 °F (4:30 pm)37.4 °F (7:30 am)
Dewpoint45.2 °F51.8 °F (4:30 pm)37.4 °F (7:30 am)
Humidity87.4 %100 % (12:30 am)56 % (3:00 pm)
Barometer30.56 in30.63 in (10:30 pm)30.51 in (5:30 am)
Wind Speed2.6 mph6.9 mph (11:00 am)
Weather ElementAverage
Visibility5.1 mi
Wind DirectionENE (67.9 °)

Weather ElementTotal
Precipitation---
Heating Degree Days13.2 (Base 65)
Growing Degree Days1.8 (Base 50)
Averaged from 39 records on January 3, 2013
WEATHER CONDITIONS BREAKOUT
WIND DIRECTION BREAKOUT
WEATHER BY HOUR - JANUARY 3, 2013
[ °C ]   °F
Local TimeTemperatureDewpointHumidityBarometerVisibilityWind DirectionWind SpeedGust SpeedPrecipitationEventsConditions
12:30 AM42.8 °F42.8 °F100 %30.54 inVariable2.3 mphClear
1:00 AM42.8 °F42.8 °F100 %30.54 inVariable2.3 mphClear
5:30 AM39.2 °F39.2 °F100 %30.51 in6.2 miVariable2.3 mph
6:00 AM39.2 °F39.2 °F100 %30.51 in3.1 miVariable2.3 mph
6:30 AM39.2 °F39.2 °F100 %30.51 in6.2 miCalmFog
7:00 AM39.2 °F39.2 °F100 %30.51 in6.2 miVariable2.3 mphFog
7:30 AM37.4 °F37.4 °F100 %30.51 in6.2 miSouth (180°)3.5 mphFogShallow Fog
7:36 AM37.4 °F37.4 °F100 %30.51 in0.6 miSouth (190°)3.5 mphFogPatches of Fog
8:00 AM37.4 °F37.4 °F100 %30.54 in6.2 miSouth (180°)3.5 mphFogPatches of Fog
8:30 AM39.2 °F39.2 °F100 %30.54 in6.2 miVariable2.3 mphPartly Cloudy
9:00 AM37.4 °F37.4 °F100 %30.54 in6.2 miSouth (180°)4.6 mphFog
9:30 AM37.4 °F37.4 °F100 %30.54 in6.2 miVariable2.3 mphFog
10:00 AM39.2 °F39.2 °F100 %30.54 in6.2 miVariable1.2 mphFog
10:30 AM41.0 °F41.0 °F100 %30.54 in6.2 miSSW (200°)3.5 mphPartly Cloudy
11:00 AM44.6 °F44.6 °F100 %30.57 in6.2 miSouth (170°)6.9 mphPartly Cloudy
11:30 AM48.2 °F48.2 °F100 %30.57 inSouth (170°)3.5 mphClear
12:00 PM53.6 °F46.4 °F77 %30.57 inSouth (180°)4.6 mphClear
12:30 PM53.6 °F48.2 °F82 %30.57 inSouth (170°)6.9 mphClear
1:00 PM59.0 °F48.2 °F67 %30.57 inSE (130°)5.8 mphClear
2:00 PM60.8 °F48.2 °F63 %30.54 inCalmClear
2:30 PM62.6 °F50.0 °F63 %30.54 inVariable2.3 mphClear
3:00 PM64.4 °F48.2 °F56 %30.54 inCalmClear
3:30 PM62.6 °F48.2 °F59 %30.54 inVariable1.2 mphClear
4:00 PM62.6 °F48.2 °F59 %30.54 inCalmClear
4:30 PM66.2 °F51.8 °F60 %30.54 inVariable1.2 mphClear
5:00 PM64.4 °F50.0 °F59 %30.54 inCalmClear
5:30 PM59.0 °F50.0 °F72 %30.57 inVariable2.3 mphClear
6:00 PM59.0 °F50.0 °F72 %30.57 inCalmClear
6:30 PM57.2 °F51.8 °F82 %30.57 inVariable1.2 mphClear
7:00 PM55.4 °F50.0 °F82 %30.57 inCalmClear
7:30 PM53.6 °F50.0 °F88 %30.57 inCalmClear
8:00 PM51.8 °F50.0 °F94 %30.60 inVariable2.3 mphClear
8:30 PM51.8 °F50.0 °F94 %30.60 inVariable2.3 mphClear
9:00 PM50.0 °F48.2 °F94 %30.60 inVariable2.3 mphClear
9:30 PM50.0 °F48.2 °F94 %30.60 inSouth (190°)4.6 mphClear
10:00 PM48.2 °F48.2 °F100 %30.60 inSouth (170°)3.5 mphClear
10:30 PM48.2 °F46.4 °F93 %30.63 in5.6 miSouth (180°)4.6 mphFogFog
11:00 PM46.4 °F46.4 °F100 %30.63 in3.1 miSouth (180°)5.8 mphFogFog
11:30 PM46.4 °F46.4 °F100 %30.63 in0.3 miSouth (180°)3.5 mphFogFog
Hourly data recorded from LECO, located miles away from A Coruņa - Downtown, Spain







STORIES FROM OUR PARTNERS